Weather History for Nome, AK

Change the Weather History Date:

Monday, July 22, 2013

  Actual Average Record
Temperature  
Mean Temperature 47 °F 52 °F  
Max Temperature 49 °F 58 °F 78 °F (1988)
Min Temperature 45 °F 47 °F 34 °F (1967)
Degree Days  
Heating Degree Days 18 13  
Month to date heating degree days 316 283  
Since 1 June heating degree days 792 799  
Since 1 July heating degree days 316 283  
Cooling Degree Days 0    
Month to date cooling degree days 0  
Year to date cooling degree days 7  
Since 1 June cooling degree days 7  
Moisture  
Dew Point 45 °F    
Average Humidity 0    
Maximum Humidity 0    
Minimum Humidity 0    
Precipitation  
Precipitation 0.00 in 0.07 in 1.58 in (1915)
Month to date precipitation 2.06 1.32  
Year to date precipitation 8.84 6.44  
Snow  
Snow 0.00 in 0.00 in 0.00 in (2014)
Month to date snowfall 0.0 0.0  
Since 1 June snowfall 0.1 0.3  
Since 1 July snowfall 0.0 0.0  
Snow Depth 0.00 in    
Sea Level Pressure  
Sea Level Pressure 30.15 in    
Wind  
Wind Speed 8 mph (SW)    
Max Wind Speed 14 mph    
Max Gust Speed 16 mph    
Visibility 9 miles    
Events      
T = Trace of Precipitation, MM = Missing Value Source: NWS Daily Summary

Daily Weather History Graph

Daily Weather History Graph

Search for Another Location

Airport:

Trip Planner

Search our weather history database for the weather conditions in past years. The results will help you decide how hot, cold, wet, or windy it might be!

Date:

Astronomy

Jul. 22, 2013 Rise Set
Actual Time 5:33 AM AKDT 12:40 AM AKDT
Civil Twilight 3:40 AM AKDT 2:35 AM AKDT
Nautical Twilight Sun does not rise Sun does not rise
Astronomical Twilight Sun does not rise Sun does not rise
Moon 11:36 PM AKDT (7/22) 6:25 AM AKDT (7/22)
Length of Visible Light 22h 55m
Length of Day
19h 07m
Full, 100% of the Moon is Illuminated
Jul 22
Full
Jul 29
Last Quarter
Aug 6
New
Aug 14
First Quarter
Aug 20
Full

Hourly Weather History & Observations

Time (AKDT) Temp. Windchill Dew Point Humidity Pressure Visibility Wind Dir Wind Speed Gust Speed Precip Events Conditions
12:53 AM 46.0 °F 43.1 °F 45.0 °F 96% 30.16 in 10.0 mi SW 5.8 mph - N/A   Overcast
1:53 AM 46.9 °F - 45.0 °F 93% 30.15 in 10.0 mi SW 6.9 mph - N/A   Overcast
2:53 AM 46.0 °F 41.0 °F 45.0 °F 96% 30.14 in 10.0 mi SSW 10.4 mph - N/A   Overcast
3:53 AM 46.0 °F 40.6 °F 44.1 °F 93% 30.13 in 9.0 mi SW 11.5 mph - N/A   Overcast
4:53 AM 46.0 °F 42.5 °F 45.0 °F 96% 30.13 in 9.0 mi WSW 6.9 mph - N/A   Overcast
5:53 AM 46.0 °F 41.9 °F 44.1 °F 93% 30.13 in 10.0 mi SW 8.1 mph - N/A   Overcast
6:53 AM 45.0 °F 41.8 °F 45.0 °F 100% 30.13 in 8.0 mi WSW 5.8 mph - N/A   Overcast
7:53 AM 46.0 °F 42.5 °F 45.0 °F 96% 30.14 in 10.0 mi SW 6.9 mph - N/A   Overcast
8:38 AM 46.4 °F 42.4 °F 44.6 °F 93% 30.13 in 10.0 mi SSW 8.1 mph - N/A   Overcast
8:53 AM 46.0 °F 41.9 °F 45.0 °F 96% 30.13 in 10.0 mi SSW 8.1 mph - N/A   Overcast
9:06 AM 46.4 °F 42.9 °F 44.6 °F 93% 30.14 in 10.0 mi SSW 6.9 mph - N/A   Overcast
9:53 AM 46.0 °F 41.0 °F 44.1 °F 93% 30.14 in 10.0 mi SSW 10.4 mph - N/A   Overcast
10:53 AM 46.0 °F 41.4 °F 44.1 °F 93% 30.14 in 10.0 mi SSW 9.2 mph - N/A   Overcast
11:53 AM 46.0 °F 41.9 °F 44.1 °F 93% 30.14 in 10.0 mi SW 8.1 mph - N/A   Overcast
12:42 PM 46.4 °F 41.9 °F 44.6 °F 93% 30.14 in 10.0 mi SW 9.2 mph - N/A   Overcast
12:53 PM 46.9 °F - 45.0 °F 93% 30.14 in 9.0 mi SSW 6.9 mph - N/A   Overcast
1:53 PM 46.9 °F - 46.0 °F 97% 30.14 in 5.0 mi SW 9.2 mph - N/A   Overcast
2:33 PM 46.4 °F 41.5 °F 46.4 °F 100% 30.14 in 2.0 mi SW 10.4 mph - N/A   Overcast
2:48 PM 46.4 °F 41.5 °F 46.4 °F 100% 30.14 in 4.0 mi SW 10.4 mph - N/A   Overcast
2:53 PM 46.9 °F - 45.0 °F 93% 30.14 in 6.0 mi SW 11.5 mph - N/A   Overcast
3:53 PM 48.0 °F - 45.0 °F 89% 30.15 in 10.0 mi SW 9.2 mph - N/A   Overcast
4:53 PM 48.0 °F - 45.0 °F 89% 30.15 in 10.0 mi SW 8.1 mph - N/A   Overcast
5:53 PM 48.9 °F - 45.0 °F 86% 30.15 in 10.0 mi SW 5.8 mph - N/A   Overcast
6:53 PM 48.9 °F - 45.0 °F 86% 30.16 in 10.0 mi SW 10.4 mph - N/A   Overcast
7:53 PM 48.0 °F - 46.0 °F 93% 30.16 in 10.0 mi SW 6.9 mph - N/A   Overcast
8:00 PM 48.2 °F - 46.4 °F 93% 30.16 in 10.0 mi WSW 9.2 mph - N/A   Overcast
8:53 PM 48.0 °F - 45.0 °F 89% 30.16 in 10.0 mi WSW 6.9 mph - N/A   Overcast
9:53 PM 48.0 °F - 46.0 °F 93% 30.17 in 10.0 mi WSW 9.2 mph - N/A   Overcast
10:53 PM 46.9 °F - 46.0 °F 97% 30.17 in 10.0 mi West 6.9 mph - N/A   Overcast
11:53 PM 46.9 °F - 46.0 °F 97% 30.17 in 10.0 mi WSW 8.1 mph - N/A   Overcast